BAW310 EGLL-LFBT

Flight info

Callsign BAW310
Flight time 1h 26m
Altitude 35000
Route MAXIT Y803 MID L151 SITET DCT BALAN DCT MAKOX DCT AGN
Aircraft A320/M-SDE3FGHIRWY/LB1

Departure

Time 2026-05-04 18:40
Airport London Heathrow Airport (EGLL)

Arrival

Time 2026-05-04 20:06
Airport Tarbes-Lourdes-Pyrénées Airport (LFBT)
Time Latitude Longitude Altitude Speed Heading
2026-05-04 18:14 51.47187 -0.48588 88 ft 0 kts 269°
2026-05-04 18:27 51.47187 -0.48581 90 ft 2 kts 269°
2026-05-04 18:27 51.47187 -0.48553 87 ft 2 kts 269°
2026-05-04 18:28 51.47187 -0.48526 90 ft 2 kts 269°
2026-05-04 18:28 51.47187 -0.48504 90 ft 2 kts 282°
2026-05-04 18:28 51.47185 -0.48477 89 ft 2 kts 236°
2026-05-04 18:28 51.47196 -0.48462 88 ft 0 kts 177°
2026-05-04 18:31 51.47195 -0.48462 88 ft 1 kts 177°
2026-05-04 18:32 51.47170 -0.48463 87 ft 6 kts 182°
2026-05-04 18:32 51.47108 -0.48473 85 ft 11 kts 183°
2026-05-04 18:32 51.47026 -0.48475 85 ft 13 kts 180°
2026-05-04 18:32 51.46936 -0.48472 85 ft 9 kts 178°
2026-05-04 18:33 51.46865 -0.48470 86 ft 11 kts 180°
2026-05-04 18:33 51.46828 -0.48470 85 ft 0 kts 181°
2026-05-04 18:37 51.46827 -0.48470 85 ft 1 kts 181°
2026-05-04 18:38 51.46811 -0.48471 86 ft 5 kts 180°
2026-05-04 18:38 51.46758 -0.48471 85 ft 10 kts 179°
2026-05-04 18:38 51.46684 -0.48469 86 ft 11 kts 179°
2026-05-04 18:38 51.46618 -0.48468 89 ft 9 kts 180°
2026-05-04 18:39 51.46552 -0.48468 89 ft 10 kts 180°
2026-05-04 18:39 51.46484 -0.48455 89 ft 8 kts 141°
2026-05-04 18:39 51.46478 -0.48369 88 ft 8 kts 89°
2026-05-04 18:39 51.46480 -0.48152 85 ft 46 kts 90°
2026-05-04 18:40 51.46482 -0.47292 83 ft 104 kts 89°
2026-05-04 18:40 51.46488 -0.45894 82 ft 146 kts 90°
2026-05-04 18:40 51.46486 -0.44116 337 ft 161 kts 89°
2026-05-04 18:40 51.46476 -0.42347 1047 ft 158 kts 91°
2026-05-04 18:41 51.46092 -0.40657 1531 ft 172 kts 120°
2026-05-04 18:41 51.45373 -0.39028 1924 ft 184 kts 121°
2026-05-04 18:41 51.44488 -0.37484 2368 ft 198 kts 147°
2026-05-04 18:41 51.43149 -0.36721 2817 ft 210 kts 161°
2026-05-04 18:42 51.41712 -0.36047 3313 ft 220 kts 162°
2026-05-04 18:42 51.40135 -0.35800 3765 ft 237 kts 186°
2026-05-04 18:42 51.38527 -0.36611 4343 ft 250 kts 207°
2026-05-04 18:42 51.36932 -0.37943 4931 ft 264 kts 207°
2026-05-04 18:43 51.35265 -0.39275 5650 ft 272 kts 206°
2026-05-04 18:43 51.33550 -0.40612 5946 ft 274 kts 206°
2026-05-04 18:43 51.31834 -0.41944 5980 ft 275 kts 206°
2026-05-04 18:43 51.30110 -0.43282 5989 ft 275 kts 206°
2026-05-04 18:44 51.28380 -0.44626 6002 ft 275 kts 206°
2026-05-04 18:44 51.27237 -0.45516 6004 ft 276 kts 206°
2026-05-04 18:44 51.24884 -0.47097 6003 ft 275 kts 189°
2026-05-04 18:44 51.22998 -0.46917 6118 ft 276 kts 159°
2026-05-04 18:45 51.21308 -0.45475 6940 ft 276 kts 147°
2026-05-04 18:45 51.19691 -0.43799 7768 ft 278 kts 146°
2026-05-04 18:45 51.18080 -0.42085 8585 ft 280 kts 146°
2026-05-04 18:45 51.16462 -0.40341 9405 ft 282 kts 146°
2026-05-04 18:46 51.14853 -0.38597 10121 ft 286 kts 146°
2026-05-04 18:46 51.13142 -0.36740 10337 ft 309 kts 146°
2026-05-04 18:46 51.11303 -0.34744 10471 ft 331 kts 146°
2026-05-04 18:46 51.09344 -0.32630 10792 ft 345 kts 146°
2026-05-04 18:47 51.07344 -0.30483 11371 ft 350 kts 146°
2026-05-04 18:47 51.05307 -0.28312 11961 ft 355 kts 146°
2026-05-04 18:47 51.03237 -0.26120 12543 ft 360 kts 146°
2026-05-04 18:47 51.01138 -0.23910 13166 ft 364 kts 146°
2026-05-04 18:48 50.98990 -0.21752 13763 ft 369 kts 152°
2026-05-04 18:48 50.96549 -0.20456 14298 ft 373 kts 169°
2026-05-04 18:48 50.93978 -0.19796 14880 ft 375 kts 171°
2026-05-04 18:48 50.91390 -0.19169 15481 ft 377 kts 171°
2026-05-04 18:49 50.88790 -0.18555 16064 ft 378 kts 171°
2026-05-04 18:49 50.86186 -0.17945 16657 ft 380 kts 171°
2026-05-04 18:49 50.83550 -0.17327 17229 ft 383 kts 171°
2026-05-04 18:49 50.80905 -0.16703 17810 ft 386 kts 171°
2026-05-04 18:50 50.78243 -0.16071 18390 ft 388 kts 171°
2026-05-04 18:50 50.75564 -0.15435 18933 ft 391 kts 171°
2026-05-04 18:50 50.72865 -0.14791 19513 ft 392 kts 171°
2026-05-04 18:50 50.70163 -0.14145 20085 ft 394 kts 171°
2026-05-04 18:51 50.67449 -0.13495 20641 ft 395 kts 171°
2026-05-04 18:51 50.64720 -0.12842 21176 ft 397 kts 171°
2026-05-04 18:51 50.61991 -0.12190 21704 ft 398 kts 171°
2026-05-04 18:51 50.59251 -0.11535 22216 ft 399 kts 171°
2026-05-04 18:52 50.56506 -0.10880 22709 ft 400 kts 172°
2026-05-04 18:52 50.53745 -0.10228 23186 ft 402 kts 172°
2026-05-04 18:52 50.51010 -0.09586 23633 ft 403 kts 172°
2026-05-04 18:52 50.48226 -0.08933 24010 ft 405 kts 172°
2026-05-04 18:53 50.45437 -0.08279 24375 ft 406 kts 172°
2026-05-04 18:53 50.42641 -0.07625 24735 ft 408 kts 172°
2026-05-04 18:53 50.39825 -0.06968 25107 ft 409 kts 172°
2026-05-04 18:53 50.37011 -0.06307 25463 ft 410 kts 172°
2026-05-04 18:54 50.34188 -0.05642 25808 ft 411 kts 172°
2026-05-04 18:54 50.31352 -0.04977 26163 ft 412 kts 172°
2026-05-04 18:54 50.28511 -0.04314 26506 ft 414 kts 172°
2026-05-04 18:54 50.25657 -0.03649 26852 ft 415 kts 172°
2026-05-04 18:55 50.22792 -0.02978 27191 ft 417 kts 172°
2026-05-04 18:55 50.17045 -0.01639 27968 ft 417 kts 172°
2026-05-04 18:55 50.14189 -0.00977 28456 ft 415 kts 172°
2026-05-04 18:56 50.11334 -0.00312 28855 ft 415 kts 172°
2026-05-04 18:56 50.08477 0.00379 29202 ft 416 kts 171°
2026-05-04 18:56 50.05626 0.01190 29605 ft 416 kts 169°
2026-05-04 18:56 50.02819 0.02073 30046 ft 416 kts 169°
2026-05-04 18:57 49.99994 0.02998 30442 ft 415 kts 169°
2026-05-04 18:57 49.97177 0.03923 30846 ft 413 kts 169°
2026-05-04 18:57 49.94373 0.04829 31295 ft 411 kts 169°
2026-05-04 18:57 49.91579 0.05712 31750 ft 409 kts 170°
2026-05-04 18:58 49.88791 0.06573 32195 ft 407 kts 170°
2026-05-04 18:58 49.86017 0.07418 32637 ft 405 kts 171°
2026-05-04 18:58 49.83267 0.08252 33073 ft 403 kts 171°
2026-05-04 18:58 49.80524 0.09086 33511 ft 401 kts 171°
2026-05-04 18:59 49.77790 0.09920 33954 ft 399 kts 171°
2026-05-04 18:59 49.75066 0.10749 34284 ft 398 kts 171°
2026-05-04 18:59 49.72351 0.11572 34560 ft 398 kts 171°
2026-05-04 18:59 49.69627 0.12399 34801 ft 399 kts 171°
2026-05-04 19:00 49.66900 0.13232 34957 ft 401 kts 171°
2026-05-04 19:00 49.64146 0.14072 34998 ft 406 kts 171°
2026-05-04 19:00 49.58521 0.15775 35008 ft 415 kts 171°
2026-05-04 19:01 49.52852 0.17492 34999 ft 416 kts 171°
2026-05-04 19:01 49.47175 0.19209 34999 ft 415 kts 171°
2026-05-04 19:02 49.41542 0.20912 34981 ft 415 kts 171°
2026-05-04 19:02 49.35883 0.22611 34979 ft 415 kts 171°
2026-05-04 19:03 49.30213 0.24307 34980 ft 415 kts 171°
2026-05-04 19:03 49.25460 0.25732 34981 ft 415 kts 171°
2026-05-04 19:04 49.19791 0.27434 34971 ft 415 kts 171°
2026-05-04 19:04 49.14115 0.29121 34973 ft 415 kts 171°
2026-05-04 19:05 49.08483 0.30788 34977 ft 415 kts 171°
2026-05-04 19:05 49.02814 0.32473 34980 ft 414 kts 171°
2026-05-04 19:06 48.97147 0.34158 34981 ft 414 kts 171°
2026-05-04 19:06 48.91501 0.35826 34979 ft 414 kts 171°
2026-05-04 19:07 48.85845 0.37494 34973 ft 413 kts 171°
2026-05-04 19:07 48.80199 0.39156 34973 ft 413 kts 171°
2026-05-04 19:08 48.74586 0.40798 34976 ft 413 kts 171°
2026-05-04 19:08 48.68935 0.42445 34969 ft 413 kts 171°
2026-05-04 19:09 48.63293 0.44096 34953 ft 413 kts 172°
2026-05-04 19:09 48.57656 0.45741 34961 ft 412 kts 172°
2026-05-04 19:10 48.52016 0.47377 34960 ft 412 kts 172°
2026-05-04 19:10 48.46381 0.49013 34961 ft 412 kts 172°
2026-05-04 19:11 48.40778 0.50635 34958 ft 412 kts 172°
2026-05-04 19:11 48.35152 0.52264 34956 ft 412 kts 172°
2026-05-04 19:12 48.26715 0.54687 34957 ft 411 kts 172°
2026-05-04 19:13 48.21096 0.56298 34953 ft 411 kts 172°
2026-05-04 19:13 48.15477 0.57907 34955 ft 411 kts 172°
2026-05-04 19:14 48.09857 0.59513 34955 ft 410 kts 172°
2026-05-04 19:14 48.04251 0.61109 34951 ft 410 kts 172°
2026-05-04 19:15 47.98636 0.62702 34950 ft 410 kts 172°
2026-05-04 19:15 47.93036 0.64298 34953 ft 410 kts 172°
2026-05-04 19:16 47.87438 0.65895 34952 ft 410 kts 172°
2026-05-04 19:16 47.81838 0.67479 34949 ft 409 kts 172°
2026-05-04 19:17 47.76237 0.69050 34950 ft 409 kts 172°
2026-05-04 19:17 47.70649 0.70622 34954 ft 409 kts 172°
2026-05-04 19:18 47.65056 0.72193 34956 ft 409 kts 172°
2026-05-04 19:18 47.59467 0.73760 34960 ft 409 kts 172°
2026-05-04 19:19 47.53880 0.75325 34964 ft 408 kts 172°
2026-05-04 19:19 47.48336 0.76870 34964 ft 408 kts 172°
2026-05-04 19:20 47.42719 0.78429 34962 ft 408 kts 172°
2026-05-04 19:20 47.37181 0.79963 34955 ft 408 kts 172°
2026-05-04 19:21 47.31565 0.80265 34961 ft 404 kts 185°
2026-05-04 19:21 47.25959 0.79655 34958 ft 404 kts 185°
2026-05-04 19:22 47.20353 0.79031 34958 ft 404 kts 185°
2026-05-04 19:22 47.14746 0.78407 34955 ft 404 kts 185°
2026-05-04 19:23 47.09136 0.77798 34952 ft 404 kts 185°
2026-05-04 19:23 47.03531 0.77184 34952 ft 404 kts 185°
2026-05-04 19:24 46.97928 0.76565 34950 ft 404 kts 185°
2026-05-04 19:24 46.92355 0.75942 34950 ft 404 kts 185°
2026-05-04 19:25 46.86755 0.75326 34955 ft 404 kts 185°
2026-05-04 19:25 46.81158 0.74718 34957 ft 403 kts 185°
2026-05-04 19:26 46.75557 0.74109 34950 ft 403 kts 185°
2026-05-04 19:26 46.69956 0.73500 34954 ft 403 kts 185°
2026-05-04 19:27 46.64361 0.72899 34952 ft 403 kts 185°
2026-05-04 19:27 46.58765 0.72299 34949 ft 403 kts 185°
2026-05-04 19:28 46.53166 0.71702 34954 ft 403 kts 185°
2026-05-04 19:28 46.47611 0.71106 34953 ft 403 kts 185°
2026-05-04 19:29 46.42024 0.70500 34952 ft 402 kts 185°
2026-05-04 19:29 46.36442 0.69898 34947 ft 402 kts 185°
2026-05-04 19:30 46.30865 0.69307 34948 ft 402 kts 185°
2026-05-04 19:30 46.25289 0.68715 34948 ft 402 kts 185°
2026-05-04 19:31 46.19719 0.68122 34950 ft 401 kts 185°
2026-05-04 19:31 46.14145 0.67517 34940 ft 401 kts 185°
2026-05-04 19:32 46.08574 0.66927 34943 ft 401 kts 185°
2026-05-04 19:32 46.02999 0.66341 34943 ft 402 kts 185°
2026-05-04 19:33 45.97426 0.65758 34938 ft 402 kts 185°
2026-05-04 19:33 45.91854 0.65162 34937 ft 402 kts 185°
2026-05-04 19:34 45.86278 0.64571 34938 ft 402 kts 185°
2026-05-04 19:34 45.80737 0.63996 34942 ft 402 kts 185°
2026-05-04 19:35 45.75161 0.63419 34941 ft 402 kts 185°
2026-05-04 19:35 45.69693 0.62845 34931 ft 387 kts 185°
2026-05-04 19:36 45.64343 0.62282 34936 ft 384 kts 185°
2026-05-04 19:36 45.59045 0.61739 34941 ft 384 kts 185°
2026-05-04 19:37 45.53711 0.61185 34938 ft 385 kts 185°
2026-05-04 19:37 45.48364 0.60634 34942 ft 385 kts 185°
2026-05-04 19:38 45.43009 0.60074 34950 ft 386 kts 185°
2026-05-04 19:38 45.37660 0.59517 34952 ft 386 kts 185°
2026-05-04 19:39 45.32301 0.58964 34942 ft 386 kts 185°
2026-05-04 19:39 45.26937 0.58407 34950 ft 386 kts 185°
2026-05-04 19:40 45.21572 0.57851 34950 ft 387 kts 185°
2026-05-04 19:40 45.16206 0.57305 34941 ft 387 kts 185°
2026-05-04 19:41 45.10828 0.56759 34939 ft 388 kts 185°
2026-05-04 19:41 45.05476 0.56211 34942 ft 388 kts 185°
2026-05-04 19:42 45.00082 0.55664 34952 ft 389 kts 185°
2026-05-04 19:42 44.94682 0.55109 34960 ft 389 kts 185°
2026-05-04 19:43 44.89268 0.54562 34965 ft 390 kts 185°
2026-05-04 19:43 44.86562 0.54290 34737 ft 389 kts 185°
2026-05-04 19:43 44.83870 0.54018 34211 ft 388 kts 185°
2026-05-04 19:43 44.81178 0.53743 33653 ft 387 kts 185°
2026-05-04 19:44 44.78489 0.53468 33037 ft 386 kts 185°
2026-05-04 19:44 44.75811 0.53196 32397 ft 386 kts 184°
2026-05-04 19:44 44.73129 0.52923 31805 ft 385 kts 184°
2026-05-04 19:44 44.70465 0.52653 31340 ft 381 kts 184°
2026-05-04 19:45 44.67868 0.52392 30874 ft 377 kts 184°
2026-05-04 19:45 44.65268 0.52132 30412 ft 373 kts 184°
2026-05-04 19:45 44.62687 0.51872 29952 ft 370 kts 184°
2026-05-04 19:45 44.60133 0.51613 29413 ft 366 kts 184°
2026-05-04 19:46 44.57596 0.51355 28878 ft 364 kts 184°
2026-05-04 19:46 44.55082 0.51099 28362 ft 361 kts 184°
2026-05-04 19:46 44.52584 0.50847 27865 ft 359 kts 184°
2026-05-04 19:46 44.50098 0.50598 27383 ft 356 kts 184°
2026-05-04 19:47 44.47632 0.50352 26913 ft 354 kts 184°
2026-05-04 19:47 44.45180 0.50106 26463 ft 352 kts 184°
2026-05-04 19:47 44.42742 0.49863 26039 ft 350 kts 184°
2026-05-04 19:47 44.40319 0.49623 25640 ft 348 kts 184°
2026-05-04 19:48 44.37912 0.49388 25318 ft 345 kts 184°
2026-05-04 19:48 44.35536 0.49155 25050 ft 339 kts 184°
2026-05-04 19:48 44.33200 0.48923 24783 ft 334 kts 184°
2026-05-04 19:48 44.30897 0.48694 24516 ft 328 kts 184°
2026-05-04 19:49 44.28636 0.48468 24253 ft 323 kts 184°
2026-05-04 19:49 44.26415 0.48246 23968 ft 318 kts 184°
2026-05-04 19:49 44.24211 0.48025 23616 ft 316 kts 184°
2026-05-04 19:49 44.22026 0.47808 23189 ft 314 kts 184°
2026-05-04 19:50 44.20583 0.47666 22880 ft 314 kts 184°
2026-05-04 19:50 44.18408 0.47454 22424 ft 313 kts 184°
2026-05-04 19:50 44.16239 0.47242 21984 ft 311 kts 184°
2026-05-04 19:50 44.14080 0.47030 21561 ft 310 kts 184°
2026-05-04 19:51 44.11932 0.46819 21159 ft 309 kts 184°
2026-05-04 19:51 44.09795 0.46607 20752 ft 308 kts 185°
2026-05-04 19:51 44.07660 0.46392 20350 ft 307 kts 185°
2026-05-04 19:51 44.05537 0.46179 19956 ft 306 kts 185°
2026-05-04 19:52 44.03419 0.45970 19574 ft 305 kts 185°
2026-05-04 19:52 44.01304 0.45764 19160 ft 305 kts 185°
2026-05-04 19:52 43.99192 0.45559 18773 ft 304 kts 185°
2026-05-04 19:52 43.97085 0.45354 18414 ft 303 kts 186°
2026-05-04 19:53 43.94983 0.45148 18013 ft 302 kts 186°
2026-05-04 19:53 43.92887 0.44941 17609 ft 301 kts 186°
2026-05-04 19:53 43.90831 0.44736 17222 ft 300 kts 186°
2026-05-04 19:53 43.88753 0.44530 16839 ft 298 kts 186°
2026-05-04 19:54 43.86686 0.44328 16462 ft 297 kts 186°
2026-05-04 19:54 43.84627 0.44127 16092 ft 296 kts 186°
2026-05-04 19:54 43.82575 0.43927 15720 ft 295 kts 186°
2026-05-04 19:54 43.80530 0.43724 15363 ft 294 kts 186°
2026-05-04 19:55 43.78492 0.43523 15013 ft 293 kts 185°
2026-05-04 19:55 43.76466 0.43326 14661 ft 292 kts 185°
2026-05-04 19:55 43.74440 0.43130 14316 ft 291 kts 185°
2026-05-04 19:55 43.72423 0.42934 13976 ft 290 kts 186°
2026-05-04 19:56 43.70420 0.42679 13604 ft 288 kts 193°
2026-05-04 19:56 43.68573 0.41684 13233 ft 285 kts 209°
2026-05-04 19:56 43.66862 0.40296 12858 ft 285 kts 211°
2026-05-04 19:56 43.65183 0.38871 12494 ft 283 kts 212°
2026-05-04 19:57 43.63501 0.37446 12112 ft 283 kts 212°
2026-05-04 19:57 43.61842 0.36057 11756 ft 282 kts 212°
2026-05-04 19:57 43.60164 0.34654 11416 ft 281 kts 212°
2026-05-04 19:57 43.58510 0.33271 11095 ft 279 kts 212°
2026-05-04 19:58 43.56856 0.31883 10749 ft 279 kts 212°
2026-05-04 19:58 43.55200 0.30500 10399 ft 278 kts 210°
2026-05-04 19:58 43.53499 0.29241 10066 ft 277 kts 208°
2026-05-04 19:58 43.51797 0.28023 9753 ft 275 kts 208°
2026-05-04 19:59 43.50107 0.26824 9508 ft 270 kts 208°
2026-05-04 19:59 43.48480 0.25683 9285 ft 255 kts 207°
2026-05-04 19:59 43.46938 0.24610 9044 ft 242 kts 208°
2026-05-04 19:59 43.45434 0.23572 8786 ft 241 kts 208°
2026-05-04 20:00 43.43938 0.22542 8525 ft 240 kts 207°
2026-05-04 20:00 43.42443 0.21526 8269 ft 239 kts 207°
2026-05-04 20:00 43.40955 0.20510 8014 ft 239 kts 208°
2026-05-04 20:00 43.39466 0.19506 7759 ft 235 kts 208°
2026-05-04 20:01 43.38028 0.18554 7500 ft 225 kts 208°
2026-05-04 20:01 43.36650 0.17635 7247 ft 217 kts 211°
2026-05-04 20:01 43.35526 0.16321 6942 ft 212 kts 237°
2026-05-04 20:01 43.34837 0.14547 6537 ft 210 kts 244°
2026-05-04 20:02 43.34180 0.12752 6043 ft 211 kts 245°
2026-05-04 20:02 43.33520 0.10950 5514 ft 210 kts 245°
2026-05-04 20:02 43.32874 0.09192 5023 ft 202 kts 245°
2026-05-04 20:02 43.32221 0.07522 4511 ft 196 kts 236°
2026-05-04 20:03 43.31256 0.06269 4042 ft 192 kts 215°
2026-05-04 20:03 43.30027 0.05548 3483 ft 193 kts 204°
2026-05-04 20:03 43.28790 0.04919 3227 ft 188 kts 205°
2026-05-04 20:03 43.27591 0.04307 2988 ft 178 kts 205°
2026-05-04 20:04 43.26483 0.03744 2770 ft 162 kts 205°
2026-05-04 20:04 43.25481 0.03236 2579 ft 147 kts 206°
2026-05-04 20:04 43.24533 0.02753 2379 ft 144 kts 207°
2026-05-04 20:04 43.23616 0.02286 2185 ft 141 kts 207°
2026-05-04 20:05 43.22686 0.01810 1978 ft 142 kts 202°
2026-05-04 20:05 43.21749 0.01341 1741 ft 144 kts 202°
2026-05-04 20:05 43.20814 0.00864 1582 ft 144 kts 204°
2026-05-04 20:05 43.19881 0.00383 1379 ft 143 kts 203°
2026-05-04 20:06 43.18946 -0.00089 1182 ft 139 kts 202°
2026-05-04 20:06 43.18173 -0.00481 1189 ft 98 kts 200°
2026-05-04 20:06 43.17692 -0.00723 1203 ft 57 kts 200°
2026-05-04 20:06 43.17348 -0.00897 1214 ft 49 kts 200°
2026-05-04 20:07 43.17156 -0.00994 1222 ft 8 kts 195°
2026-05-04 20:07 43.17100 -0.00956 1223 ft 12 kts 124°
2026-05-04 20:07 43.17077 -0.00832 1222 ft 15 kts 84°
2026-05-04 20:07 43.17158 -0.00731 1218 ft 19 kts 20°
2026-05-04 20:08 43.17275 -0.00672 1214 ft 19 kts 19°
2026-05-04 20:08 43.17417 -0.00603 1209 ft 24 kts 20°
2026-05-04 20:08 43.17588 -0.00513 1203 ft 28 kts 24°
2026-05-04 20:08 43.17777 -0.00378 1197 ft 33 kts 28°
2026-05-04 20:09 43.17987 -0.00218 1189 ft 36 kts 29°
2026-05-04 20:09 43.18213 -0.00046 1176 ft 27 kts 30°
2026-05-04 20:09 43.18355 0.00063 1177 ft 21 kts 29°
2026-05-04 20:09 43.18456 0.00137 1178 ft 13 kts 32°
2026-05-04 20:10 43.18494 0.00188 1175 ft 0 kts 46°